Weather in Yelabuga

Russia / Khabarovsk Krai     48°47′55″N   135°51′46″E
temp.,
°C
wind,
m/s
gust,
m/s
humid.,
%
clouds,
%
prec.,
mm/h
press.,
hPa
HPBL,
m
8 august, mon
mon801:00+20s4897100 11.2 1000233
04:00+19sse4109898 14.3 998345
07:00+19s3109896 2.1 997401
10:00+20ssw499895 3.7 997363
13:00+22sw479154 2.2 995509
16:00+22wsw588622 4.2 995607
19:00+21wsw510850 0.4 996334
22:00+18sw411830 0.4 997216
9 august, tue
tue901:00+16wsw369213 0.0 998103
04:00+16sw34821 0.0 99778
07:00+16sw37844 0.0 998166
10:00+19ssw46734 0.0 998419
13:00+23sw69585 0.0 9971014
16:00+23sw711645 0.6 9961243
19:00+19wsw5117939 3.6 996361
22:00+16sw128848 4.5 99622
10 august, wed
wed1001:00+15ssw489232 1.8 996168
04:00+14ssw389127 1.8 996169
07:00+14s269233 0.0 997172
10:00+19s488031 0.3 995441
13:00+21sw71177100 2.6 994813
16:00+19w7108391 4.8 995838
19:00+18wsw488076 0.1 997540
22:00+15ssw3892100 0.3 998163
11 august, thu
thu1101:00+15ssw3990100 0.3 997217
04:00+15sw51193100 0.8 998403
07:00+14sw51093100 0.1 999474
10:00+16sw61088100 0.1 999671
13:00+16ssw588494 0.0 1000663
16:00+19sw5772100 0.0 999807
19:00+18sw37844 0.4 1000242
22:00+15ssw479398 0.8 1001128
12 august, fri
fri1201:00+14s349390 0.2 100189
04:00+13s3595100 0.2 1001126
07:00+14ssw239411 0.0 1002118
10:00+18sw2380100 0.0 1002403
13:00+19w2374100 0.2 1002654
16:00+20wsw237422 0.6 1002553
19:00+20w11822 0.5 100342
22:00+16se11895 0.5 100411